Regional Weather Roundup
Issued by NWS Upton, NY

Current Version | Previous Version | Text Only | Print | Product List | Glossary On
Versions: 1 2 3 4 5 6 7 8 9 10 11 12 13 14 15 16 17 18 19 20 21 22 23 24 25 26 27 28 29 30 31 32 33 34 35 36 37 38 39 40 41 42 43 44 45 46 47 48 49 50
000 ASUS41 KOKX 191705 RWROKX REGIONAL WEATHER ROUNDUP NATIONAL WEATHER SERVICE NEW YORK NY 100 PM EDT FRI SEP 19 2014 NOTE: "FAIR" INDICATES FEW OR NO CLOUDS BELOW 12,000 FEET WITH NO SIGNIFICANT WEATHER AND/OR OBSTRUCTIONS TO VISIBILITY. NYZ071-072-176-178-NJZ106-104-191800- NEW YORK CITY METRO AREA CITY SKY/WX TMP DP RH WIND PRES REMARKS CENTRAL PARK SUNNY 63 43 48 E9 30.38R LAGUARDIA APRT MOSUNNY 61 44 53 NE16 30.35R KENNEDY INTL MOSUNNY 66 44 45 NE9 30.35S NEWARK/LIBERTY MOSUNNY 63 45 51 NE9 30.35R BRNX BOT. GARD N/A 61 41 48 N12 30.36F TETERBORO PTSUNNY 63 42 46 SE8 30.34S $$ NYZ177-179-078>081-191800- LONG ISLAND NEW YORK CITY SKY/WX TMP DP RH WIND PRES REMARKS FARMINGDALE MOSUNNY 64 45 49 NE10 30.35R ISLIP MOSUNNY 63 42 46 N9G20 30.34R SHIRLEY MOSUNNY 62 43 49 MISG 30.35S WESTHAMPTON SUNNY 64 41 42 NE14G21 30.36S MONTAUK POINT N/A 59 41 51 NE10 30.37S $$ NYZ052-065-067-191800- HUDSON VALLEY CITY SKY/WX TMP DP RH WIND PRES REMARKS WHITE PLAINS MOSUNNY 60 38 43 E3 30.35R NEWBURGH MOSUNNY 57 45 62 E12 30.37S MONTGOMERY SUNNY 60 40 47 VRB6 30.35S POUGHKEEPSIE SUNNY 61 39 44 CALM 30.35S ALBANY MOSUNNY 56 34 43 VRB7 30.39F $$ NJZ001-105-106-008-010-013-015-019>022-104-191800- NEW JERSEY CITY SKY/WX TMP DP RH WIND PRES REMARKS NEWARK/LIBERTY MOSUNNY 63 45 51 NE9 30.35R TETERBORO PTSUNNY 63 42 46 SE8 30.34S CALDWELL SUNNY 62 40 44 E7 30.35S MORRISTOWN SUNNY 64 43 45 E7 30.34F SOMERVILLE SUNNY 66 42 41 VRB6 30.32S LINDEN FAIR 68 47 46 E7 30.36S SUSSEX CLOUDY 62 43 49 VRB5 30.34S ANDOVER N/A 61 43 51 NE5 30.34S TRENTON MOSUNNY 66 46 48 SE12 30.32S MILLVILLE MOSUNNY 68 54 60 E14 30.29R ATLANTIC CITY PTSUNNY 67 56 67 E14G24 30.30S WRIGHTSTOWN PTSUNNY 64 51 62 NE14 30.30S TOMS RIVER CLOUDY 63 52 67 NE9 30.33S BELMAR CLOUDY 63 46 55 NE13 30.34R $$ PAZ047>061-062-071-191800- EASTERN PENNSYLVANIA CITY SKY/WX TMP DP RH WIND PRES REMARKS PHILADELPHIA PTSUNNY 68 52 56 E8 30.32S ALLENTOWN MOSUNNY 65 48 54 E10 30.33S SCRANTON SUNNY 63 42 46 N7 30.31F $$ CTZ002-004>006-009-010-012-RIZ004-006-007-MAZ004-011-015-191800- SOUTHERN NEW ENGLAND IN CT CITY SKY/WX TMP DP RH WIND PRES REMARKS BRADLEY INTL MOSUNNY 60 33 36 VRB6 30.37S HARTFORD SUNNY 58 35 42 VRB6 30.37S DANBURY SUNNY 57 38 48 CALM 30.37S WTRBRY/OXFORD SUNNY 55 37 50 E6 30.37 BRIDGEPORT MOSUNNY 61 41 47 E12 30.36F MERIDEN SUNNY 61 35 37 N9 30.37S NEW HAVEN SUNNY 62 38 40 CALM 30.36S CHESTER FAIR 57 37 47 N6 30.36F GROTON SUNNY 61 37 41 N9 30.36R WILLIMANTIC SUNNY 59 34 39 CALM 30.37S IN RI CITY SKY/WX TMP DP RH WIND PRES REMARKS PROVIDENCE MOSUNNY 60 34 37 N6 30.38S BLOCK ISLAND SUNNY 59 39 47 NE10 30.36S WESTERLY SUNNY 61 35 37 N8 30.37S IN MA CITY SKY/WX TMP DP RH WIND PRES REMARKS BOSTON MOSUNNY 55 35 47 E12 30.40S WORCESTER SUNNY 53 32 44 NE7 30.38R WESTFIELD SUNNY 57 29 34 MISG 30.38S PROVINCETOWN MOSUNNY 57 37 47 NE13G23 30.39S NANTUCKET MOSUNNY 61 39 44 NE16G25 30.35R $$ ANZ330-335-338-340-345-350-353-355-191800- COASTAL MARINE OBSERVATIONS STATION/POSITION TIME SKY/WX TEMP WIND PRES VSBY WAVE AIR SEA DIR/SP/G HT/PER (UTC) (F) (DEG/KT/KT) (MB) (MI) (FT/S) NY HARB ENTRANCE 1600 60 70 60/ 16/ 17 1027.3 4/ 6 4S FIRE IS 1700 70 N/A 4/ 5 20S FIRE ISLAND 1700 60 68 60/ 19/ 23 1027.1 5/ 6 23SW MTP 1700 N/A 5/ 6 HUDSON CANYON 1700 66 72 60/ 19/ 23 1024.8 6/ 7 EXECUTION ROCKS 1700 59 70 80/ 16/ 21 N/A WESTERN LI SOUND 1700 58 90/ 14/ 17 N/A 2/ 5 CENTRAL LI SOUND 1600 57 70 60/ 8/ 12 N/A 2/ 4 EASTERN LI SOUND 1600 57 68 70/ 8/ 14 N/A ROBBINS REEF 1600 59 30/ 12/ 14 1026.1 $$ >>>>>>>>>>>>>>>>>>>>>>>>>>>> KEY <<<<<<<<<<<<<<<<<<<<<<<<<<< > < > SKY/WX - SKY CONDITION/PRESENT WEATHER < > TMP - TEMPERATURE IN FAHRENHEIT < > DP - DEWPOINT IN FAHRENHEIT < > RH - RELATIVE HUMIDITY IN PERCENT < > WIND - DIRECTION AND SPEED IN MPH < > PRES - MEAN SEA LEVEL PRESSURE IN INCHES OF HG < > WCI - WIND CHILL INDEX < > VSB - VISIBILITY IN MILES < > HX - HEAT INDEX < > TC - TEMPERATURE IN CELSIUS < > VRB - VARIABLE WIND DIRECTION < > < >>>>>>>>>>>>>>>>>>>>>>>>>>>> KEY <<<<<<<<<<<<<<<<<<<<<<<<<<<

USA.gov is the U.S. government's official web portal to all federal, state and local government web resources and services.